Wetbulb
54.80 55.30 54.94 55.57 55.59 55.76 55.24 55.26 54.66 54.64 54.17 52.69 51.67 52.76 53.54 57.71 58.47 59.34 60.67 60.79 61.16 61.66 60.92 58.86 57.90 55.98 53.40 51.71 51.27 49.59 48.50 47.97 48.32 47.36 47.24 48.09 47.55 45.99 45.28 45.49 45.15 45.87 45.95
53.00 53.68 54.25 54.71 54.65 53.88 54.39 54.97 54.74 54.44 54.06 53.58 53.01 54.68 56.51 57.75 59.00 60.47 60.68 60.94 61.14 60.96 60.34 57.91 56.88 56.26 53.55 51.43 50.70 49.89 48.98 49.17 48.43 46.56 44.64 42.62 44.46 45.78 46.44 45.36 45.81 44.52 44.94
52.55 53.70 54.48 54.56 53.92 53.60 54.05 54.53 55.09 54.88 54.95 56.11 56.62 57.56 57.32 58.22 59.06 59.39 59.74 61.19 61.34 60.82 60.54 58.58 57.20 55.68 53.13 50.80 50.36 50.21 49.74 47.69 48.27 47.86 45.49 41.25 39.36 40.40 43.08 44.62 44.12 43.79 43.04
54.40 54.61 55.13 54.66 54.33 53.97 55.16 54.95 55.63 55.46 56.22 58.15 58.05 58.00 56.55 56.78 58.05 58.43 59.12 59.98 59.73 59.25 59.44 59.17 57.77 55.97 53.62 51.96 51.54 52.07 50.20 48.69 47.15 47.16 48.75 45.63 43.25 38.76 37.39 40.48 41.24 42.44 43.57
53.91 54.47 55.59 55.92 55.82 54.69 55.11 56.18 57.69 58.39 58.76 59.40 59.28 58.78 55.74 58.33 58.47 58.99 58.64 58.30 58.16 58.39 58.70 58.27 56.52 55.05 52.88 52.11 52.49 51.16 49.84 48.78 46.00 44.29 43.82 44.86 43.04 41.47 38.61 36.50 38.32 41.15 41.74
54.18 54.70 55.64 56.53 56.67 56.20 56.44 57.46 57.88 58.95 59.89 60.40 60.62 58.91 56.99 58.14 58.44 58.63 58.26 56.96 56.11 56.31 57.04 57.81 56.49 54.85 54.12 52.98 52.86 50.64 48.33 46.99 46.29 45.43 44.89 44.06 40.35 40.64 37.72 35.86 35.94 36.65 38.58
54.52 54.66 54.78 55.30 56.20 56.03 56.59 57.13 57.01 57.30 60.39 60.40 60.70 60.45 58.62 58.46 58.40 58.38 58.15 56.21 55.91 55.43 56.17 56.61 55.50 55.35 54.41 52.73 52.15 50.73 48.20 46.08 44.68 44.68 44.72 45.26 43.18 41.70 40.04 38.41 37.62 36.46 36.82
55.11 54.92 55.57 56.44 56.80 56.71 56.32 56.50 56.85 56.98 59.81 60.84 60.79 61.08 59.45 59.25 59.07 59.28 58.79 57.77 56.78 55.94 55.49 55.37 54.54 54.58 53.14 51.81 50.56 49.11 47.44 46.84 45.57 45.01 44.91 44.62 44.59 44.28 42.27 39.97 37.09 33.73 34.88
54.94 55.20 55.97 57.05 57.67 57.77 57.44 56.78 57.35 58.49 59.49 59.81 61.03 60.87 60.73 59.26 59.23 59.19 58.63 57.51 56.64 55.91 54.52 55.45 54.75 52.35 50.53 50.42 48.91 47.73 46.36 46.20 46.25 45.26 45.93 45.76 44.65 44.09 43.62 42.20 39.37 36.49 30.28
54.91 55.72 56.20 56.71 57.75 58.33 58.82 59.19 59.56 59.75 59.91 59.81 61.04 61.23 61.01 60.64 59.37 58.94 57.89 57.13 56.69 56.17 55.37 53.76 50.98 49.31 48.39 47.73 46.94 46.26 46.75 46.15 45.90 47.02 46.50 44.67 44.09 43.87 43.28 41.74 40.29 37.66 35.22
52.03 53.04 56.86 57.50 57.78 58.53 58.89 59.19 59.05 59.37 59.65 59.90 61.46 61.50 61.05 60.00 59.33 58.67 57.50 57.37 56.62 54.91 52.95 49.44 47.95 48.08 49.01 48.29 47.03 46.73 46.89 46.41 46.19 46.46 45.22 43.95 43.30 42.49 41.20 39.97 39.24 38.02 36.70
52.16 52.36 53.50 55.12 58.01 57.75 58.29 58.86 59.67 59.65 60.37 60.67 60.49 61.16 60.81 59.75 59.23 58.96 57.99 55.53 52.43 50.56 49.64 49.20 49.67 49.25 48.14 48.02 47.55 47.03 47.64 46.29 45.06 44.84 44.39 42.90 43.75 40.96 40.35 39.17 38.13 37.11 37.02
50.13 51.97 53.28 54.14 57.47 58.22 58.43 58.86 59.86 60.12 60.49 59.37 59.80 59.25 59.44 58.56 57.05 55.34 54.48 53.19 51.02 49.95 50.06 49.64 48.67 48.44 49.06 48.99 48.04 46.98 46.78 45.55 45.23 43.87 41.71 41.55 40.23 37.86 37.51 37.43 36.82 36.78 38.61
50.22 50.64 52.24 53.43 54.79 57.84 58.43 58.68 59.49 60.18 60.11 60.32 58.05 56.75 55.92 55.58 54.44 52.19 51.74 51.61 50.45 49.35 49.29 49.16 49.03 48.74 48.71 47.87 47.46 46.66 45.26 44.20 42.76 41.84 40.18 39.48 38.48 37.40 36.53 36.50 35.42 36.22 34.12
50.20 49.41 52.28 52.94 54.27 55.63 57.94 59.16 58.22 57.51 56.74 55.97 55.46 53.41 52.49 52.63 51.17 50.89 50.27 49.79 50.28 49.13 48.62 47.87 47.62 47.69 47.26 46.99 45.92 45.90 41.80 37.46 36.70 37.14 37.99 37.69 38.32 39.70 37.57 35.90 33.18 32.28 30.75
49.89 50.95 51.32 54.56 55.47 57.29 56.89 56.50 55.23 53.20 52.89 51.76 50.19 50.23 50.05 50.03 49.38 49.14 48.62 47.84 46.96 46.93 47.09 47.14 47.10 45.86 46.54 42.00 39.94 38.31 36.13 36.71 35.80 34.53 34.84 35.17 37.25 36.63 36.58 36.16 35.38 33.58 30.31
50.83 51.52 52.77 56.49 56.20 54.78 53.45 51.49 50.64 51.75 50.30 49.70 49.79 49.67 48.82 47.39 46.64 46.57 45.96 45.53 45.53 45.84 45.66 45.53 45.23 44.38 43.61 37.49 37.71 36.62 35.65 34.65 33.76 32.98 33.06 34.65 37.76 35.67 34.30 33.40 33.04 32.05 33.90
51.35 52.20 55.00 53.23 51.96 51.78 50.62 49.97 49.37 49.39 49.17 48.47 48.04 47.18 46.24 45.49 45.62 45.68 45.18 44.36 44.23 43.84 43.70 43.28 43.57 42.30 38.80 37.01 36.36 35.56 34.14 33.51 34.30 34.19 33.44 32.12 31.48 31.70 32.30 30.31 28.01 28.13 29.30
50.83 52.59 53.27 51.66 50.78 49.78 49.96 48.86 47.91 47.66 47.95 47.03 46.41 46.04 45.09 44.05 44.40 43.64 43.16 42.94 42.54 42.09 42.44 43.14 41.09 36.90 35.58 34.82 34.90 34.75 32.93 32.14 31.10 32.94 32.19 31.69 29.56 32.03 33.94 29.72 27.96 28.49 28.94
52.42 52.28 52.07 51.10 49.48 48.12 48.62 47.23 46.60 46.36 46.22 46.15 45.45 45.08 44.84 44.41 43.49 43.17 42.96 43.36 43.80 43.32 40.26 38.17 36.49 34.31 31.95 33.67 33.96 32.26 29.52 28.58 28.12 28.82 29.84 30.71 30.60 31.75 32.15 29.11 27.61 26.16 27.19
52.28 52.00 51.20 49.80 48.43 48.53 47.96 45.85 45.53 44.98 46.80 46.65 46.04 45.06 44.74 43.72 43.55 43.76 44.31 42.75 39.19 36.69 32.66 32.20 32.41 31.77 31.18 31.80 32.97 31.34 27.86 26.96 26.94 26.99 27.07 27.28 29.66 30.85 30.72 30.78 27.81 27.79 29.70
50.67 51.38 50.53 49.14 48.54 48.13 46.96 45.34 45.39 46.77 46.97 45.70 43.70 42.73 42.51 43.65 43.93 41.29 39.88 39.09 36.70 33.30 31.66 31.46 30.57 30.11 28.89 30.90 30.45 29.73 28.98 28.51 26.62 25.62 26.18 26.55 28.05 28.50 29.09 29.39 30.63 31.58 29.98
48.64 49.72 48.27 48.71 48.14 47.35 47.12 44.64 42.06 42.88 42.58 42.83 42.66 42.39 41.59 41.24 40.36 38.56 36.39 34.77 34.40 32.55 31.54 30.98 30.34 29.04 28.47 27.44 27.91 27.38 26.78 26.43 25.15 25.31 25.33 25.70 26.61 27.27 27.10 29.04 28.69 27.19 26.13
46.99 46.93 46.07 44.75 44.24 44.86 43.26 42.29 42.68 42.70 41.51 40.14 39.11 38.23 36.08 34.51 34.23 34.59 33.97 31.70 30.95 30.40 29.59 29.51 29.49 28.81 26.44 24.82 23.94 24.28 24.15 24.24 23.86 23.81 23.27 23.42 24.64 25.59 24.78 24.30 24.85 24.90 24.05
45.08 44.68 42.55 41.01 40.66 41.66 41.24 41.89 42.20 41.58 38.78 35.75 34.59 33.68 32.22 30.50 28.77 29.71 29.64 27.78 28.02 29.03 27.32 26.60 27.51 25.70 23.81 23.26 23.98 23.75 23.39 22.19 23.89 21.49 21.47 22.06 22.73 22.81 22.25 21.83 22.20 22.22 22.18
43.49 41.99 40.76 36.91 31.07 30.94 31.45 34.76 37.43 36.25 33.67 32.29 31.60 30.32 29.85 30.17 28.26 26.73 26.71 28.63 28.11 28.11 27.83 27.64 26.73 25.95 25.14 23.66 23.49 24.12 24.28 24.31 24.41 21.01 18.69 15.57 12.95 15.05 18.84 18.06 18.09 18.71 18.50
MSLP
1013.98 1014.53 1015.08 1015.11 1015.05 1015.65 1015.58 1015.74 1016.41 1016.90 1017.51 1018.06 1018.63 1018.61 1018.52 1018.55 1018.45 1018.28 1018.70 1019.12 1019.45 1019.91 1020.46 1020.74 1021.35 1021.47 1021.93 1022.32 1022.87 1023.40 1023.84 1024.32 1024.41 1024.77 1025.24 1025.24 1025.09 1025.15 1025.27 1025.35 1025.40 1025.54 1025.72
1013.65 1014.42 1014.59 1014.81 1015.11 1015.24 1015.78 1016.19 1016.48 1016.96 1017.33 1017.67 1017.97 1018.09 1017.98 1018.06 1018.43 1018.66 1018.92 1019.05 1019.51 1019.75 1020.13 1020.39 1020.83 1021.00 1021.69 1022.30 1022.85 1023.07 1023.87 1024.26 1024.34 1025.13 1025.59 1025.57 1025.58 1025.37 1025.29 1025.27 1025.27 1025.51 1025.64
1012.45 1013.26 1013.73 1014.28 1014.59 1014.90 1014.98 1015.26 1015.60 1016.26 1016.79 1016.91 1017.71 1017.80 1017.91 1017.89 1018.20 1018.40 1018.75 1018.68 1018.97 1019.30 1019.46 1019.85 1020.16 1020.54 1021.13 1021.82 1022.26 1022.80 1023.50 1024.17 1024.45 1024.39 1024.87 1025.51 1025.83 1025.70 1025.54 1025.28 1025.43 1025.63 1025.77
1011.56 1012.20 1012.48 1013.19 1013.53 1013.90 1014.33 1014.57 1015.04 1015.50 1015.70 1016.24 1016.64 1016.95 1016.82 1017.13 1017.54 1017.85 1018.10 1018.36 1018.52 1018.83 1019.17 1019.29 1019.52 1019.77 1020.60 1021.14 1021.57 1022.14 1023.10 1023.63 1024.31 1024.62 1024.43 1024.49 1025.04 1025.91 1026.46 1025.84 1025.58 1025.69 1025.91
1009.46 1010.47 1011.30 1011.92 1012.36 1013.20 1013.68 1013.94 1014.36 1014.64 1014.92 1015.30 1015.57 1015.90 1016.11 1016.41 1016.77 1017.35 1017.72 1018.08 1018.41 1018.47 1018.75 1019.04 1019.27 1019.70 1020.26 1020.74 1021.18 1021.72 1022.43 1023.11 1023.93 1024.26 1024.36 1024.59 1025.02 1025.45 1026.03 1026.45 1026.09 1025.88 1025.79
1008.07 1008.85 1009.67 1010.81 1011.64 1012.39 1012.85 1013.12 1013.43 1013.62 1013.98 1014.24 1014.54 1014.99 1015.22 1015.68 1016.26 1016.91 1017.35 1017.85 1018.15 1018.48 1018.67 1018.91 1019.04 1019.53 1019.86 1020.37 1020.63 1021.34 1021.97 1022.73 1023.37 1023.84 1024.13 1024.44 1024.91 1025.35 1025.76 1026.38 1026.15 1026.05 1025.51
1006.80 1007.81 1008.66 1009.23 1010.07 1010.76 1011.30 1011.66 1011.99 1012.21 1012.57 1013.01 1013.20 1013.68 1014.12 1014.57 1015.28 1016.02 1016.64 1017.34 1017.82 1018.11 1018.22 1018.46 1018.79 1019.16 1019.29 1019.84 1020.33 1021.18 1021.61 1022.26 1023.02 1023.56 1023.95 1024.06 1024.41 1024.88 1025.21 1025.60 1025.87 1025.93 1025.60
1005.59 1006.40 1007.02 1007.57 1008.42 1009.15 1009.93 1010.64 1011.04 1011.48 1011.71 1012.08 1012.50 1012.95 1013.51 1013.80 1014.35 1014.88 1015.64 1016.41 1016.85 1017.23 1017.58 1017.98 1018.43 1018.82 1019.22 1019.66 1020.39 1020.72 1021.61 1021.78 1022.71 1023.31 1023.53 1023.80 1023.90 1024.37 1024.79 1024.99 1025.42 1025.84 1025.82
1004.32 1004.97 1005.68 1006.40 1007.09 1007.63 1008.25 1008.74 1009.60 1010.36 1010.84 1011.18 1011.69 1012.04 1012.40 1013.27 1013.80 1014.25 1014.99 1015.84 1016.19 1016.69 1017.13 1017.46 1018.33 1018.93 1019.37 1020.07 1020.38 1021.41 1022.57 1022.46 1022.90 1023.36 1023.51 1023.79 1023.85 1024.08 1024.27 1024.55 1024.83 1025.27 1025.62
1003.44 1004.20 1004.68 1005.14 1005.70 1006.21 1006.61 1007.52 1008.32 1008.78 1009.20 1010.00 1010.68 1011.37 1011.83 1012.30 1012.95 1013.48 1014.30 1014.96 1015.45 1016.05 1016.63 1017.39 1018.16 1019.27 1020.21 1020.74 1021.87 1022.01 1022.67 1023.03 1023.28 1023.51 1023.84 1023.68 1023.70 1023.83 1023.90 1023.91 1024.39 1024.71 1024.91
1001.99 1002.65 1003.44 1004.02 1004.77 1005.15 1005.76 1006.45 1007.40 1008.01 1008.92 1009.51 1009.77 1010.32 1010.86 1011.49 1012.22 1012.74 1013.68 1014.43 1015.12 1015.91 1016.68 1017.47 1018.20 1018.93 1019.59 1020.16 1021.08 1021.72 1022.13 1022.36 1022.83 1023.19 1023.34 1023.31 1023.23 1023.48 1023.57 1023.57 1023.88 1024.11 1024.36
1001.47 1001.61 1001.88 1002.79 1003.76 1004.34 1004.89 1005.57 1006.57 1007.42 1008.08 1008.69 1009.11 1009.60 1009.95 1010.98 1011.48 1012.12 1013.25 1014.09 1014.93 1015.72 1016.45 1017.15 1017.81 1018.42 1019.14 1019.92 1020.61 1021.00 1021.48 1021.93 1022.27 1022.53 1022.62 1022.69 1022.74 1023.05 1023.09 1023.32 1023.53 1023.65 1023.63
1001.08 1001.22 1001.47 1001.98 1003.02 1004.06 1004.68 1005.31 1005.88 1006.58 1007.54 1007.94 1008.56 1009.23 1009.77 1010.48 1011.65 1011.71 1013.52 1014.51 1014.93 1015.81 1016.61 1017.30 1017.96 1018.40 1019.01 1019.77 1020.10 1020.53 1020.91 1021.46 1021.84 1021.97 1022.14 1022.34 1022.54 1022.79 1022.88 1023.02 1023.24 1023.26 1023.23
1000.87 1001.06 1001.36 1001.68 1002.05 1003.42 1004.23 1004.84 1005.42 1006.27 1006.99 1007.57 1008.48 1009.22 1009.97 1010.48 1011.30 1012.20 1013.06 1014.25 1014.83 1015.40 1016.12 1016.28 1017.28 1018.16 1018.79 1019.28 1019.84 1020.38 1020.73 1021.07 1021.39 1021.68 1021.88 1022.03 1022.16 1022.37 1022.52 1022.66 1022.77 1022.77 1022.95
1000.40 1000.92 1001.34 1001.59 1002.00 1002.74 1003.78 1004.64 1005.50 1006.05 1007.03 1008.03 1008.70 1009.54 1009.86 1010.60 1011.13 1012.40 1012.81 1013.74 1014.45 1014.97 1015.71 1016.64 1017.30 1018.21 1018.67 1019.32 1019.80 1020.11 1020.45 1020.98 1021.34 1021.47 1021.63 1021.77 1021.83 1021.92 1022.12 1022.40 1022.53 1022.62 1022.70
1000.51 1000.89 1001.58 1002.08 1002.57 1003.38 1004.52 1005.21 1005.89 1006.88 1007.79 1008.72 1009.35 1009.90 1010.77 1011.40 1012.17 1012.64 1013.14 1013.90 1014.62 1015.63 1016.10 1016.77 1017.55 1018.35 1018.73 1019.21 1019.80 1019.89 1020.46 1020.74 1021.11 1021.50 1021.68 1021.85 1021.90 1021.74 1021.86 1022.10 1022.40 1022.62 1022.74
1000.96 1001.33 1002.01 1002.46 1003.39 1004.16 1004.92 1006.14 1007.03 1007.83 1008.54 1009.24 1010.23 1010.84 1011.47 1012.08 1012.71 1013.24 1013.83 1014.54 1015.18 1015.84 1016.43 1017.02 1017.46 1017.86 1018.77 1019.12 1019.80 1020.15 1020.42 1020.90 1021.33 1021.58 1021.83 1021.92 1021.96 1022.05 1022.17 1022.25 1022.25 1022.26 1022.06
1001.39 1002.15 1003.01 1003.91 1004.66 1005.15 1005.85 1006.66 1007.43 1008.23 1009.13 1010.04 1010.65 1011.30 1011.90 1012.54 1013.12 1013.61 1014.12 1014.76 1015.45 1015.82 1016.43 1016.91 1017.51 1018.06 1018.72 1019.31 1019.83 1020.20 1020.66 1021.09 1021.49 1021.86 1022.05 1022.14 1022.23 1022.22 1022.14 1021.99 1021.91 1021.78 1021.61
1001.90 1002.62 1003.60 1004.58 1005.52 1006.17 1006.83 1007.44 1008.29 1008.87 1009.47 1010.19 1010.83 1011.44 1011.91 1012.51 1013.15 1013.80 1014.36 1014.89 1015.50 1016.05 1016.53 1016.91 1017.52 1018.38 1019.30 1019.57 1020.01 1020.52 1021.11 1021.52 1021.82 1022.02 1022.13 1022.21 1022.29 1022.16 1021.85 1021.73 1021.67 1021.31 1020.97
1002.62 1003.43 1004.29 1005.20 1005.93 1006.83 1007.27 1007.87 1008.65 1009.25 1009.79 1010.35 1010.97 1011.51 1012.11 1012.64 1013.27 1013.83 1014.51 1015.03 1015.54 1016.08 1016.84 1017.57 1018.16 1018.86 1019.74 1020.19 1020.50 1020.83 1021.35 1021.92 1022.34 1022.45 1022.56 1022.45 1022.30 1022.07 1021.95 1021.91 1021.70 1021.08 1020.47
1003.08 1003.93 1004.73 1005.52 1006.43 1007.09 1007.67 1008.43 1009.01 1009.35 1009.81 1010.34 1011.00 1011.68 1012.11 1012.65 1013.18 1013.84 1014.33 1014.96 1015.94 1016.89 1017.88 1018.47 1019.04 1019.60 1020.06 1020.80 1021.10 1021.44 1021.78 1022.21 1022.41 1022.44 1022.42 1022.35 1022.13 1022.00 1021.89 1021.60 1021.23 1020.73 1019.95
1003.57 1004.24 1005.11 1005.95 1006.71 1007.30 1007.87 1008.47 1008.94 1009.42 1009.98 1010.59 1011.23 1011.86 1012.42 1012.92 1013.47 1014.06 1014.70 1015.53 1016.36 1017.29 1018.20 1018.83 1019.62 1020.33 1020.82 1021.13 1021.45 1021.72 1022.01 1022.17 1022.33 1022.40 1022.35 1022.21 1022.02 1021.73 1021.45 1021.10 1020.69 1020.18 1019.70
1004.21 1004.76 1005.52 1006.46 1007.14 1007.65 1008.17 1008.88 1009.29 1009.73 1010.46 1011.14 1011.76 1012.36 1012.70 1013.27 1013.87 1014.51 1015.27 1016.17 1016.95 1017.77 1018.64 1019.18 1019.88 1020.59 1021.11 1021.53 1021.79 1022.01 1022.12 1022.19 1022.35 1022.44 1022.28 1022.05 1021.75 1021.41 1021.09 1020.81 1020.48 1020.08 1019.74
1004.84 1005.55 1006.30 1007.18 1007.88 1008.21 1008.84 1009.37 1009.76 1010.35 1011.04 1011.84 1012.65 1013.20 1013.68 1014.42 1015.08 1015.67 1016.26 1016.89 1017.66 1018.41 1019.10 1019.71 1020.31 1020.73 1021.44 1021.97 1022.22 1022.34 1022.32 1022.16 1022.16 1022.14 1021.96 1021.75 1021.54 1021.18 1020.99 1020.67 1020.47 1020.25 1020.00
1005.66 1006.55 1007.59 1008.54 1009.34 1009.57 1010.06 1010.38 1010.64 1011.12 1012.22 1013.17 1014.00 1014.72 1015.33 1016.00 1016.85 1017.61 1018.14 1018.58 1019.26 1019.37 1019.82 1020.35 1020.66 1021.03 1021.61 1022.04 1022.22 1022.32 1022.22 1022.06 1021.96 1021.85 1021.83 1021.69 1021.43 1021.15 1020.92 1020.71 1020.50 1020.31 1019.99
1006.82 1008.02 1009.11 1010.07 1011.46 1011.82 1012.23 1012.24 1012.36 1012.73 1013.69 1014.74 1015.65 1016.35 1016.86 1017.50 1018.05 1018.82 1019.60 1019.91 1020.08 1020.28 1020.44 1020.84 1021.10 1021.53 1021.73 1022.09 1022.27 1022.32 1022.19 1021.91 1021.67 1021.66 1021.83 1021.80 1021.64 1021.43 1021.23 1021.00 1020.80 1020.58 1020.32
Wind_Speed
14 12 9 8 8 8 11 13 12 10 9 6 6 6 7 4 3 2 4 5 5 7 6 5 7 5 5 5 5 3 4 1 1 3 2 1 3 3 4 3 3 3 5
14 15 14 13 12 11 10 10 12 12 11 8 8 5 5 3 6 6 7 7 7 7 7 8 7 7 5 6 6 5 3 1 2 4 1 1 4 3 3 2 3 4 3
18 16 17 17 13 13 13 14 15 16 14 13 8 7 4 3 6 7 7 7 7 6 6 9 8 7 6 6 6 6 6 4 2 3 4 1 3 1 3 3 2 2 4
17 17 18 18 17 16 14 16 16 18 15 15 12 14 10 8 6 5 5 5 8 7 7 8 10 9 7 9 7 6 4 5 4 1 1 2 4 3 3 3 1 2 5
22 21 20 19 19 19 17 16 17 16 17 16 15 11 7 9 4 5 7 5 5 7 7 6 7 8 7 7 8 6 6 4 4 3 2 1 1 1 3 3 3 3 1
22 21 20 19 18 20 20 18 19 18 19 18 18 13 13 11 9 8 7 6 4 4 6 6 5 7 7 9 8 6 8 6 5 3 3 3 3 2 3 2 4 4 4
22 21 22 21 20 21 20 18 18 16 19 18 17 16 14 15 14 11 9 10 7 4 7 7 6 7 6 7 9 8 8 7 5 4 3 2 3 2 2 3 3 4 2
22 24 25 24 24 23 22 20 20 19 17 17 16 14 11 10 9 12 9 9 9 8 7 7 6 7 7 9 7 7 3 7 5 6 4 3 2 1 3 3 3 2 3
22 25 24 23 23 24 25 26 23 20 17 16 15 15 13 10 11 12 11 9 8 8 8 9 6 7 9 9 9 4 4 5 2 3 3 2 4 4 3 3 4 4 3
18 19 20 23 21 22 23 23 23 23 22 17 16 14 14 12 10 12 14 13 11 9 8 7 10 11 10 12 8 6 3 4 2 1 6 6 3 5 4 3 3 3 4
6 12 23 21 22 20 20 21 20 20 17 15 15 16 14 10 11 12 10 12 9 7 8 12 13 15 14 11 9 8 8 7 6 8 7 8 6 4 4 4 4 4 4
9 8 5 13 20 21 19 19 19 19 17 16 13 15 14 12 11 12 10 9 10 10 13 14 14 12 13 11 10 9 8 9 7 7 6 7 4 6 5 4 6 5 5
7 8 6 5 17 18 16 15 17 19 15 8 12 9 11 12 7 11 8 7 10 11 10 11 12 12 11 9 6 8 7 6 7 7 6 6 4 3 3 3 4 4 4
6 7 7 8 8 17 13 9 12 12 12 12 7 9 9 11 11 10 12 11 11 13 13 14 11 11 9 9 9 8 8 6 5 5 3 2 2 4 5 5 5 5 4
7 6 8 8 8 9 12 11 7 8 8 11 11 9 10 10 11 11 12 13 12 11 12 10 9 7 7 6 7 7 5 7 5 3 2 1 3 5 5 2 5 5 4
8 8 8 6 5 9 11 11 11 10 10 10 10 9 9 9 8 9 9 10 11 10 9 9 8 7 4 6 8 8 6 5 5 2 4 5 6 7 9 9 7 2 2
8 7 7 8 9 10 12 12 12 11 12 13 10 9 8 9 9 10 10 9 9 9 8 7 7 6 4 9 9 9 5 4 3 1 3 4 4 6 4 5 5 5 6
7 8 8 9 8 11 13 13 13 13 13 11 10 9 9 9 8 9 9 9 7 8 6 6 5 4 5 9 9 9 5 4 5 5 4 3 5 5 6 5 5 5 5
6 8 9 10 10 10 11 12 11 11 11 10 10 9 10 11 11 10 10 8 8 5 5 5 6 10 8 11 10 8 5 5 5 5 5 5 5 8 13 8 8 9 7
9 11 12 11 11 8 10 12 11 10 10 11 10 10 10 10 10 10 9 7 6 6 8 10 9 12 9 12 11 8 4 5 3 4 4 7 7 11 12 8 9 12 12
11 11 10 10 10 9 9 10 9 9 10 11 11 11 10 10 10 9 5 5 8 10 8 8 6 8 9 8 14 12 5 3 1 2 3 3 10 12 16 16 9 11 13
8 10 10 10 9 8 8 9 8 10 11 11 11 11 9 7 7 7 6 10 9 9 6 7 6 6 6 11 13 12 9 6 2 3 4 4 15 18 17 13 13 15 9
7 6 10 10 7 7 8 7 6 11 11 10 8 7 8 8 7 8 7 7 7 6 5 5 5 5 5 5 11 10 8 7 3 3 8 15 17 16 9 9 13 9 5
6 6 9 8 6 6 8 9 9 9 10 11 10 8 9 11 10 8 7 7 5 5 4 3 4 4 5 4 3 3 2 5 4 5 6 8 10 8 3 3 5 4 5
7 10 11 12 11 11 10 8 9 11 12 12 10 10 9 11 10 9 6 6 5 4 5 3 3 3 3 2 3 5 4 2 4 4 3 4 5 2 3 4 5 5 6
13 13 13 17 16 16 16 15 14 15 14 13 9 8 7 7 7 6 6 13 9 9 10 6 5 2 6 4 4 8 11 11 11 2 3 3 2 2 5 4 5 5 7
Wind_Direction
150 148 152 157 154 158 150 147 141 147 145 148 165 182 194 204 229 251 209 209 214 212 173 158 170 163 147 163 155 143 127 73 150 63 350 246 263 178 177 175 186 180 190
161 168 170 169 171 163 155 160 161 163 173 171 182 185 201 209 202 205 208 201 203 198 168 169 179 158 142 153 157 137 124 120 164 136 160 30 351 338 248 207 209 223 210
167 179 182 173 176 181 186 176 176 174 182 180 192 213 196 173 192 202 207 198 184 193 174 171 172 167 149 163 165 154 157 166 237 178 147 109 198 348 334 264 273 223 215
171 181 178 173 179 189 189 183 181 181 188 196 201 212 203 189 195 188 193 172 167 182 185 179 184 170 161 165 168 161 160 140 163 43 242 118 141 161 312 326 307 245 245
173 179 181 183 180 184 192 194 195 195 199 201 204 212 190 190 169 175 175 169 180 186 197 189 169 170 164 166 167 152 152 139 142 160 152 141 114 113 138 252 308 353 74
181 182 182 183 188 188 194 198 201 198 199 199 204 210 201 179 178 181 178 173 170 173 184 186 170 183 169 175 177 150 150 143 134 147 146 159 154 180 146 196 243 212 273
179 181 184 187 191 191 195 196 204 202 198 199 202 204 190 184 183 179 177 171 180 188 197 190 195 198 174 151 149 152 143 139 141 154 175 136 126 148 183 172 239 239 285
184 185 189 190 194 194 195 200 205 214 205 201 203 205 194 193 189 182 176 185 188 192 185 196 192 185 145 141 137 129 129 128 142 166 150 151 138 131 201 193 169 292 266
186 190 190 192 192 193 194 197 201 208 207 201 206 207 201 197 181 177 169 177 180 178 181 187 172 129 134 127 113 100 84 80 115 161 149 163 212 207 214 202 176 180 251
187 197 194 196 197 198 199 195 200 201 203 203 198 204 201 189 170 166 175 176 183 177 172 149 123 109 96 87 82 91 121 157 165 263 228 223 225 223 220 201 219 200 201
178 171 202 204 199 202 201 199 201 206 206 209 193 193 196 189 164 167 169 180 169 148 128 131 130 135 144 146 141 161 172 177 198 222 214 222 211 217 224 211 215 222 193
185 188 196 171 194 203 198 196 198 200 205 202 188 196 183 181 169 164 158 146 138 138 145 149 148 148 149 158 163 167 175 192 201 220 229 228 234 234 234 228 239 234 237
178 187 165 146 171 195 203 197 193 197 196 170 191 180 175 158 150 123 131 144 137 136 138 142 149 151 160 161 167 173 177 193 216 224 223 223 212 246 248 240 237 235 245
208 190 182 179 163 181 189 183 185 185 181 185 148 137 145 142 142 133 143 145 144 143 155 154 156 158 160 164 171 184 201 211 229 212 185 204 239 250 264 266 266 263 252
225 197 190 187 176 142 144 162 132 118 108 111 123 133 130 131 134 149 144 147 155 152 143 142 138 143 148 167 192 202 158 152 144 96 64 11 313 295 267 250 267 267 263
136 129 114 154 154 105 115 117 112 108 112 117 117 112 109 121 132 133 132 132 125 135 131 136 140 138 174 177 196 146 153 132 109 47 355 345 327 318 323 353 17 303 303
133 118 85 112 114 113 116 114 111 109 105 108 112 112 111 113 118 120 123 125 131 132 138 142 143 149 176 150 141 125 112 101 101 60 322 326 356 6 9 354 346 322 301
127 96 104 97 86 104 106 111 111 112 115 115 119 124 125 126 127 129 130 125 132 136 148 157 164 149 151 125 114 99 95 74 52 45 27 358 347 348 340 320 312 295 285
120 112 111 111 106 101 110 113 115 121 127 134 137 138 136 135 138 139 138 138 142 143 160 168 129 111 100 96 91 90 74 65 37 22 21 10 342 324 334 331 316 310 294
108 116 117 115 111 116 118 120 129 133 136 138 136 136 140 139 141 141 147 154 153 151 100 87 95 104 103 91 94 94 93 79 37 358 335 327 327 334 344 329 312 302 294
114 121 118 121 124 125 123 123 135 131 136 133 137 145 148 142 138 141 141 122 101 96 86 93 90 115 111 98 93 92 85 90 38 344 327 320 319 317 315 308 295 280 290
116 126 127 128 131 128 126 131 139 142 143 139 132 129 135 147 138 123 104 111 112 109 107 104 93 100 97 104 89 81 74 66 42 341 314 306 316 315 316 314 306 319 322
120 108 115 126 129 128 138 134 117 117 120 124 125 117 105 104 111 106 98 100 104 108 110 108 112 117 116 86 75 63 45 34 23 334 323 318 315 312 311 338 345 337 338
117 104 101 102 101 99 94 109 110 106 101 98 92 86 85 76 65 67 73 83 83 95 100 107 113 107 107 82 50 37 11 7 343 324 318 301 292 286 310 340 347 337 337
93 95 90 86 80 79 72 89 103 99 93 83 74 69 73 77 72 59 58 79 51 79 104 79 95 107 106 81 44 2 337 303 307 310 310 300 309 313 342 344 345 348 344
98 95 88 78 65 60 50 43 60 80 85 79 72 65 65 72 66 73 65 52 78 76 82 97 119 81 126 118 17 346 328 321 325 325 299 292 319 345 352 350 353 350 346